FENGYUN 1C DEB *, 47012

Orbit data source: Space-Track

FENGYUN 1C DEB *, 47012 is space debris in SSO originally from a launch on Mon, 10 May 1999 UTC launched from the Taiyaun Space Center, China (TSC). Fengyun 1C debris stems from the Chinese weather satellite Fengyun-1C, which was intentionally destroyed by a Chinese anti-satellite missile in 2007. This event dramatically increased the amount of space debris, with thousands of trackable fragments posing hazards to satellites and human spaceflight. The Fengyun 1C debris cloud has become a focal point in discussions about space sustainability and the need for international regulations to prevent the creation of new debris.

Loading next visibility...
Identifier
47012, 1999-025FAN
Orbit
SSO
Country
Flag of CNCN / PRC
Related business
Manufacturer
Unknown
Mission
Spacecraft
Bus & Motor
Unknown
Mass
Unknown
Launch date (UTC)
1999-05-10 (27 years ago)
Launch vehicle
Unknown
Launch site
Taiyaun Space Center, China (TSC)
Object type
Payload
Rocket body
Debris
Shape & HBR
Unknown shape, 0.1 m
Radar Cross Section
Small (<0.1 m²)

Expand to show TLE details & history
Last TLE update: 3 days ago

TLE from 3 days ago
0 FENGYUN 1C DEB *
1 47012U 99025FAN 25316.47793188  .00000747  00000-0  71013-3 0  9996
2 47012  98.7560 197.2909 0163280 144.3452 216.8738 13.77875724541568
Epoch: 2025-11-12T11:28Z
TLE epoch observation values (Epoch: 2025-11-12T11:28:13.314Z)
Latitude
-0.00007°
Longitude
-26.61413°
Altitude
1,070.996 km
Speed
7.268 km/s
True Right ascension
13h 09m 09s
True Declination
0° 00' 00"
Sunlit
Object was in daylight at epoch
Visualization orbit readout
Latitude
Unknown
Longitude
Unknown
Altitude
Unknown
Speed
Unknown
Apparent Right ascension
Unknown
Apparent Declination
Unknown
Sunlit
N/A
Visualization observer readout
Local Sidereal Time
20:39:24
Azimuth
Unknown
Elevation
Unknown
Doppler factor
Unknown
Orbital elements
Apogee altitude
1,088.606 km
Perigee altitude
848.689 km
Semi-major axis
7,346.784 km
Eccentricity
0.01633
Inclination
98.756°
RAAN
197.2909°
Arg. of periapsis
144.3452°
True anomaly
215.76918°
Mean anomaly
216.8738°
Eccentric anomaly
216.3197°
Mean motion
3.44665 °/min
Orbital period
104.45 mins
BSTAR
0.00071013
Loading maneuver chart data...
Computing Atmospheric mass density...

Documentation

Showing up to 5 results
|